From 06/18/2020 00:00 to 07/04/2020 00:00

Date LAKE ELEVATION [FT] PRECIPITATION INCREMENT [IN] PRECIPITATION TOTAL [IN] AIR TEMPERATURE [F] RELATIVE HUMIDITY [%] RELEASE [CFS]
07/02/2020 17:00 115.71 0.00 -- 88.0 -- 0.0
07/02/2020 16:00 115.71 0.00 -- 87.0 -- 0.0
07/02/2020 15:00 115.70 0.00 -- 85.0 -- 0.0
07/02/2020 14:00 115.72 0.00 -- 83.0 -- 0.0
07/02/2020 13:00 115.72 0.00 -- 81.0 -- 0.0
07/02/2020 12:00 115.74 0.00 -- 79.0 -- 0.0
07/02/2020 11:00 115.76 0.00 -- 76.0 -- 0.0
07/02/2020 10:00 115.78 0.00 -- 72.0 -- 1.0
07/02/2020 09:00 115.78 0.00 -- 67.0 -- 1.0
07/02/2020 08:00 115.79 0.00 -- 63.0 -- 1.0
07/02/2020 07:00 115.78 0.00 -- 62.0 -- 0.8
07/02/2020 06:00 115.78 0.00 -- 62.0 -- 0.3
07/02/2020 05:00 115.76 0.00 -- 61.0 -- 0.0
07/02/2020 04:00 115.75 0.00 -- 62.0 -- 0.0
07/02/2020 03:00 115.75 0.00 -- 61.0 -- 0.0
07/02/2020 02:00 115.74 0.00 -- 62.0 -- 0.0
07/02/2020 01:00 115.74 0.00 -- 63.0 -- 0.0
07/02/2020 00:00 115.74 0.00 -- 64.0 -- 0.0
07/01/2020 23:00 115.75 0.00 -- 66.0 -- 0.0
07/01/2020 22:00 115.76 0.00 -- 68.0 -- 0.0
07/01/2020 21:00 115.75 -- -- 70.0 -- 0.0
07/01/2020 20:00 115.75 -- -- 72.0 -- 0.0
07/01/2020 19:00 115.74 0.00 -- 74.0 -- 0.0
07/01/2020 18:00 115.74 0.00 -- 74.0 -- 0.0
07/01/2020 17:00 115.74 0.00 -- 75.0 -- 0.0
07/01/2020 16:00 115.74 0.00 -- 72.0 -- 0.0
07/01/2020 15:00 115.76 0.00 -- 73.0 -- 0.0
07/01/2020 14:00 115.76 0.00 -- 71.0 -- 0.0
07/01/2020 13:00 115.77 0.00 -- 69.0 -- 0.0
07/01/2020 12:00 115.77 0.00 -- 68.0 -- 1.0
07/01/2020 11:00 115.78 0.01 -- 66.0 -- 1.0
07/01/2020 10:00 115.78 0.00 -- 66.0 -- 1.0
07/01/2020 09:00 115.77 0.00 -- 64.0 -- 1.0
07/01/2020 08:00 115.77 0.00 -- 63.0 -- 1.0
07/01/2020 07:00 115.78 0.01 -- 63.0 -- 1.0
07/01/2020 06:00 115.78 0.00 -- 63.0 -- 1.0
07/01/2020 05:00 115.77 0.00 -- 64.0 -- 0.3
07/01/2020 04:00 115.77 0.01 -- 64.0 -- 0.0
07/01/2020 03:00 115.77 0.00 -- 64.0 -- 0.8
07/01/2020 02:00 115.77 0.01 -- 64.0 -- 0.0
07/01/2020 01:00 115.77 0.00 -- 65.0 -- 0.0
07/01/2020 00:00 115.77 0.00 -- 65.0 -- 0.0
06/30/2020 23:00 115.77 0.01 -- 65.0 -- 0.0
06/30/2020 22:00 115.76 0.01 -- 65.0 -- 0.0
06/30/2020 21:00 115.75 0.00 -- 65.0 -- 0.0
06/30/2020 20:00 115.76 0.00 -- 66.0 -- 0.0
06/30/2020 19:00 115.75 0.00 -- 67.0 -- 0.0
06/30/2020 18:00 115.75 0.00 -- 69.0 -- 0.0
06/30/2020 17:00 115.74 0.00 -- 69.0 -- 0.0
06/30/2020 16:00 115.74 0.00 -- 69.0 -- 0.0
06/30/2020 15:00 115.74 0.00 -- 67.0 -- 0.0
06/30/2020 14:00 115.75 0.00 -- 69.0 -- 0.0
06/30/2020 13:00 115.75 0.01 -- 68.0 -- 0.0
06/30/2020 12:00 115.75 0.00 -- 66.0 -- 0.0
06/30/2020 11:00 115.75 0.01 -- 65.0 -- 0.0
06/30/2020 10:00 115.75 0.00 -- 65.0 -- 0.0
06/30/2020 09:00 115.76 0.00 -- 65.0 -- 0.0
06/30/2020 08:00 115.75 0.01 -- 64.0 -- 0.0
06/30/2020 07:00 115.75 0.00 -- 64.0 -- 0.0
06/30/2020 06:00 115.74 0.00 -- 63.0 -- 0.0
06/30/2020 05:00 115.75 0.01 -- 63.0 -- 0.0
06/30/2020 04:00 115.75 0.00 -- 63.0 -- 0.0
06/30/2020 03:00 115.75 0.00 -- 62.0 -- 0.0
06/30/2020 02:00 115.74 0.01 -- 62.0 -- 0.0
06/30/2020 01:00 115.75 0.01 -- 62.0 -- 0.0
06/30/2020 00:00 115.74 0.01 0.08 64.0 -- 0.0
06/29/2020 23:00 115.74 0.02 -- 64.0 -- 0.0
06/29/2020 22:00 115.74 0.05 -- 63.0 -- 0.0
06/29/2020 21:00 115.73 0.04 -- 63.0 -- 0.0
06/29/2020 20:00 115.72 0.01 -- 63.0 -- 0.0
06/29/2020 19:00 115.72 0.00 -- 65.0 -- 0.0
06/29/2020 18:00 115.72 0.00 -- 66.0 -- 0.0
06/29/2020 17:00 115.72 0.00 -- 68.0 -- 0.0
06/29/2020 16:00 115.71 0.00 -- 68.0 -- 0.0
06/29/2020 15:00 115.70 0.00 -- 68.0 -- 0.0
06/29/2020 14:00 115.71 0.00 -- 69.0 -- 0.0
06/29/2020 13:00 115.71 0.00 -- 67.0 -- 0.0
06/29/2020 12:00 115.71 0.00 -- 66.0 -- 0.0
06/29/2020 11:00 115.72 0.00 -- 67.0 -- 0.0
06/29/2020 10:00 115.73 0.01 -- 67.0 -- 0.0
06/29/2020 09:00 115.73 0.00 -- 67.0 -- 0.0
06/29/2020 08:00 115.75 0.00 -- 67.0 -- 0.0
06/29/2020 07:00 115.75 0.00 -- 67.0 -- 0.0
06/29/2020 06:00 115.74 0.00 -- 67.0 -- 0.0
06/29/2020 05:00 115.73 0.02 -- 67.0 -- 0.0
06/29/2020 04:00 115.73 0.69 -- 67.0 -- 0.0
06/29/2020 03:00 115.71 0.05 -- 67.0 -- 0.0
06/29/2020 02:00 115.70 0.01 -- 67.0 -- 0.0
06/29/2020 01:00 115.69 0.02 -- 67.0 -- 0.0
06/29/2020 00:00 115.69 0.00 -- 68.0 -- 0.0
06/28/2020 23:00 115.68 0.01 -- 68.0 -- 0.0
06/28/2020 22:00 115.70 0.00 -- 68.0 -- 0.0
06/28/2020 21:00 115.68 0.00 -- 69.0 -- 0.0
06/28/2020 20:00 115.67 0.02 -- 70.0 -- 0.0
06/28/2020 19:00 115.67 0.12 -- 70.0 -- 0.0
06/28/2020 18:00 115.68 0.04 -- 69.0 -- 0.0
06/28/2020 17:00 115.68 0.01 -- 70.0 -- 0.0
06/28/2020 16:00 115.67 0.00 -- 80.0 -- 0.0
06/28/2020 15:00 115.66 0.01 -- 77.0 -- 0.0
06/28/2020 14:00 115.61 0.00 -- 76.0 -- 0.0
06/28/2020 13:00 115.62 0.00 -- 80.0 -- 0.0
06/28/2020 12:00 115.66 0.00 -- 78.0 -- 0.0
06/28/2020 11:00 115.68 0.00 -- 77.0 -- 0.0
06/28/2020 10:00 115.69 0.00 -- 73.0 -- 0.0
06/28/2020 09:00 115.70 0.00 -- 70.0 -- 0.0
06/28/2020 08:00 115.69 0.00 -- 66.0 -- 0.0
06/28/2020 07:00 115.69 0.00 -- 61.0 -- 0.0
06/28/2020 06:00 115.67 0.00 -- 61.0 -- 0.0
06/28/2020 05:00 115.67 0.00 -- 62.0 -- 0.0
06/28/2020 04:00 115.66 0.00 -- 63.0 -- 0.0
06/28/2020 03:00 115.64 0.00 -- 64.0 -- 0.0
06/28/2020 02:00 115.64 0.00 -- 65.0 -- 0.0
06/28/2020 01:00 115.63 0.00 -- 67.0 -- 0.0
06/28/2020 00:00 115.63 0.00 -- 69.0 -- 0.0
06/27/2020 23:00 115.65 0.00 -- 70.0 -- 0.0
06/27/2020 22:00 115.64 0.00 -- 70.0 -- 0.0
06/27/2020 21:00 115.64 0.00 -- 72.0 -- 0.0
06/27/2020 20:00 115.63 0.00 -- 72.0 -- 0.0
06/27/2020 19:00 115.62 0.00 -- 72.0 -- 0.0
06/27/2020 18:00 115.64 0.00 -- 73.0 -- 0.0
06/27/2020 17:00 115.66 0.00 -- 75.0 -- 0.0
06/27/2020 16:00 115.65 0.00 -- 78.0 -- 0.0
06/27/2020 15:00 115.65 0.00 -- 77.0 -- 0.0
06/27/2020 14:00 115.65 0.00 -- 79.0 -- 0.0
06/27/2020 13:00 115.66 0.00 -- 79.0 -- 0.0
06/27/2020 12:00 115.67 0.00 -- 80.0 -- 0.0
06/27/2020 11:00 115.68 0.00 -- 78.0 -- 0.0
06/27/2020 10:00 115.68 0.00 -- 77.0 -- 0.0
06/27/2020 09:00 115.69 0.00 -- 70.0 -- 0.0
06/27/2020 08:00 115.69 0.00 -- 62.0 -- 0.0
06/27/2020 07:00 115.68 0.00 -- 57.0 -- 0.0
06/27/2020 06:00 115.67 0.00 -- 58.0 -- 0.0
06/27/2020 05:00 115.67 0.00 -- 58.0 -- 0.0
06/27/2020 04:00 115.67 0.00 -- 59.0 -- 0.0
06/27/2020 03:00 115.67 0.00 -- 61.0 -- 0.0
06/27/2020 02:00 115.65 0.00 -- 62.0 -- 0.0
06/27/2020 01:00 115.66 0.00 -- 64.0 -- 0.0
06/27/2020 00:00 115.67 0.00 0.00 66.0 -- 0.0
06/26/2020 23:00 115.69 0.00 -- 67.0 -- 0.0
06/26/2020 22:00 115.68 0.00 -- 69.0 -- 0.0
06/26/2020 21:00 115.66 0.00 -- 74.0 -- 0.0
06/26/2020 20:00 115.64 0.00 -- 80.0 -- 0.0
06/26/2020 19:00 115.63 0.00 -- 81.0 -- 0.0
06/26/2020 18:00 115.64 0.00 -- 80.0 -- 0.0
06/26/2020 17:00 115.65 0.00 -- 79.0 -- 0.0
06/26/2020 16:00 115.66 0.00 -- 83.0 -- 0.0
06/26/2020 15:00 115.59 0.00 -- 83.0 -- 0.0
06/26/2020 14:00 115.61 0.00 -- 81.0 -- 0.0
06/26/2020 13:00 115.63 0.00 -- 80.0 -- 0.0
06/26/2020 12:00 115.69 0.00 -- 78.0 -- 0.0
06/26/2020 11:00 115.71 0.00 -- 77.0 -- 0.0
06/26/2020 10:00 115.72 0.00 -- 74.0 -- 0.0
06/26/2020 09:00 115.72 0.00 -- 70.0 -- 0.0
06/26/2020 08:00 115.72 0.00 -- 64.0 -- 0.0
06/26/2020 07:00 115.71 0.00 -- 60.0 -- 0.0
06/26/2020 06:00 115.70 0.00 -- 60.0 -- 0.0
06/26/2020 05:00 115.69 0.00 -- 60.0 -- 0.0
06/26/2020 04:00 115.68 0.00 -- 62.0 -- 0.0
06/26/2020 03:00 115.67 0.00 -- 63.0 -- 0.0
06/26/2020 02:00 115.68 0.00 -- 63.0 -- 0.0
06/26/2020 01:00 115.69 0.00 -- 65.0 -- 0.0
06/26/2020 00:00 115.70 0.00 0.00 66.0 -- 0.0
06/25/2020 23:00 115.71 0.00 -- 66.0 -- 0.0
06/25/2020 22:00 115.69 0.00 -- 69.0 -- 0.0
06/25/2020 21:00 115.68 0.00 -- 74.0 -- 0.0
06/25/2020 20:00 115.67 0.00 -- 80.0 -- 0.0
06/25/2020 19:00 115.67 0.00 -- 82.0 -- 0.0
06/25/2020 18:00 115.68 0.00 -- 83.0 -- 0.0
06/25/2020 17:00 115.64 0.00 -- 82.0 -- 0.0
06/25/2020 16:00 115.64 0.00 -- 80.0 -- 0.0
06/25/2020 15:00 115.64 0.00 -- 77.0 -- 0.0
06/25/2020 14:00 115.68 0.00 -- 76.0 -- 0.0
06/25/2020 13:00 115.69 0.00 -- 74.0 -- 0.0
06/25/2020 12:00 115.70 0.00 -- 74.0 -- 0.0
06/25/2020 11:00 115.70 0.00 -- 72.0 -- 0.0
06/25/2020 10:00 115.71 0.00 -- 68.0 -- 0.0
06/25/2020 09:00 115.70 0.00 -- 64.0 -- 0.0
06/25/2020 08:00 115.71 0.00 -- 60.0 -- 0.0
06/25/2020 07:00 115.71 0.00 -- 59.0 -- 0.0
06/25/2020 06:00 115.71 0.00 -- 59.0 -- 0.0
06/25/2020 05:00 115.74 0.00 -- 59.0 -- 0.0
06/25/2020 04:00 115.73 0.00 -- 60.0 -- 0.0
06/25/2020 03:00 115.73 0.00 -- 61.0 -- 0.0
06/25/2020 02:00 115.72 0.00 -- 62.0 -- 0.0
06/25/2020 01:00 115.71 0.01 -- 63.0 -- 0.0
06/25/2020 00:00 115.71 0.00 0.01 65.0 -- 0.0
06/24/2020 23:00 115.72 0.00 -- 65.0 -- 0.0
06/24/2020 22:00 115.73 0.00 -- 67.0 -- 0.0
06/24/2020 21:00 115.76 0.00 -- 74.0 -- 0.0
06/24/2020 20:00 115.72 0.02 -- 75.0 -- 0.0
06/24/2020 19:00 115.70 0.09 -- 75.0 -- 0.0
06/24/2020 18:00 115.63 0.00 -- 83.0 -- 0.0
06/24/2020 17:00 115.62 0.00 -- 81.0 -- 0.0
06/24/2020 16:00 115.61 0.06 -- 78.0 -- 0.0
06/24/2020 15:00 115.60 0.10 -- 77.0 -- 0.0
06/24/2020 14:00 115.60 0.00 -- 81.0 -- 0.0
06/24/2020 13:00 115.61 0.00 -- 78.0 -- 0.0
06/24/2020 12:00 115.63 0.00 -- 76.0 -- 0.0
06/24/2020 11:00 115.66 0.00 -- 75.0 -- 0.0
06/24/2020 10:00 115.67 0.00 -- 75.0 -- 0.0
06/24/2020 09:00 115.67 0.00 -- 73.0 -- 0.0
06/24/2020 08:00 115.68 0.00 -- 72.0 -- 0.0
06/24/2020 07:00 115.68 0.00 -- 71.0 -- 0.0
06/24/2020 06:00 115.66 0.00 -- 70.0 -- 0.0
06/24/2020 05:00 115.64 0.00 -- 69.0 -- 0.0
06/24/2020 04:00 115.63 0.00 -- 70.0 -- 0.0
06/24/2020 03:00 115.65 0.00 -- 71.0 -- 0.0
06/24/2020 02:00 115.67 0.00 -- 73.0 -- 0.0
06/24/2020 01:00 115.67 0.00 -- 74.0 -- 0.0
06/24/2020 00:00 115.67 0.00 -- 75.0 -- 0.0
06/23/2020 23:00 115.66 0.00 -- 77.0 -- 0.0
06/23/2020 22:00 115.64 0.00 -- 79.0 -- 0.0
06/23/2020 21:00 115.58 0.00 -- 81.0 -- 0.0
06/23/2020 20:00 115.55 0.00 -- 85.0 -- 0.0
06/23/2020 19:00 115.57 0.00 -- 88.0 -- 0.0
06/23/2020 18:00 115.60 0.00 -- 87.0 -- 0.0
06/23/2020 17:00 115.61 0.00 -- 88.0 -- 0.0
06/23/2020 16:00 115.63 0.00 -- 86.0 -- 0.0
06/23/2020 15:00 115.62 0.00 -- 83.0 -- 0.0
06/23/2020 14:00 115.64 0.00 -- 84.0 -- 0.0
06/23/2020 13:00 115.66 0.00 -- 82.0 -- 0.0
06/23/2020 12:00 115.68 0.00 -- 78.0 -- 0.0
06/23/2020 11:00 115.69 0.00 -- 73.0 -- 0.0
06/23/2020 10:00 115.69 0.00 -- 67.0 -- 0.0
06/23/2020 09:00 115.69 0.00 -- 66.0 -- 0.0
06/23/2020 08:00 115.69 0.00 -- 65.0 -- 0.0
06/23/2020 07:00 115.70 0.00 -- 64.0 -- 0.0
06/23/2020 06:00 115.69 0.00 -- 64.0 -- 0.0
06/23/2020 05:00 115.67 0.00 -- 64.0 -- 0.0
06/23/2020 04:00 115.66 0.00 -- 64.0 -- 0.0
06/23/2020 03:00 115.65 0.00 -- 64.0 -- 0.0
06/23/2020 02:00 115.64 0.00 -- 64.0 -- 0.0
06/23/2020 01:00 115.64 0.00 -- 64.0 -- 0.0
06/23/2020 00:00 115.63 0.00 -- 64.0 -- 0.0
06/22/2020 23:00 115.66 0.00 -- 64.0 -- 0.0
06/22/2020 22:00 115.68 0.00 -- 65.0 -- 0.0
06/22/2020 21:00 115.67 0.00 -- 66.0 -- 0.0
06/22/2020 20:00 115.63 0.00 -- 70.0 -- 0.0
06/22/2020 19:00 115.63 0.00 -- 73.0 -- 0.0
06/22/2020 18:00 115.63 0.00 -- 75.0 -- 0.0
06/22/2020 17:00 115.63 0.00 -- 75.0 -- 0.0
06/22/2020 16:00 115.63 0.00 -- 75.0 -- 0.0
06/22/2020 15:00 115.64 0.00 -- 74.0 -- 0.0
06/22/2020 14:00 115.67 0.00 -- 72.0 -- 0.0
06/22/2020 13:00 115.67 0.00 -- 69.0 -- 0.0
06/22/2020 12:00 115.68 0.01 -- 67.0 -- 0.0
06/22/2020 11:00 115.67 0.00 -- 66.0 -- 0.0
06/22/2020 10:00 115.69 0.00 -- 65.0 -- 0.0
06/22/2020 09:00 115.68 0.00 -- 65.0 -- 0.0
06/22/2020 08:00 115.69 0.00 -- 65.0 -- 0.0
06/22/2020 07:00 115.68 0.00 -- 65.0 -- 0.0
06/22/2020 06:00 115.68 0.00 -- 65.0 -- 0.0
06/22/2020 05:00 115.66 0.00 -- 65.0 -- 0.0
06/22/2020 04:00 115.64 0.00 -- 66.0 -- 0.0
06/22/2020 03:00 115.61 0.00 -- 67.0 -- 0.0
06/22/2020 02:00 115.61 0.00 -- 67.0 -- 0.0
06/22/2020 01:00 115.63 0.00 -- 67.0 -- 0.0
06/22/2020 00:00 115.67 0.00 -- 67.0 -- 0.0
06/21/2020 23:00 115.67 0.00 -- 67.0 -- 0.0
06/21/2020 22:00 115.67 0.00 -- 67.2 -- 0.0
06/21/2020 21:00 115.67 0.00 -- 67.4 -- 0.0
06/21/2020 20:00 115.67 0.00 -- 67.6 -- 0.0
06/21/2020 19:00 115.68 0.00 -- 67.8 -- 0.0
06/21/2020 18:00 115.68 0.00 -- 68.0 -- 0.0
06/21/2020 17:00 115.68 0.00 -- 68.2 -- 0.0
06/21/2020 16:00 115.68 0.00 -- 68.4 -- 0.0
06/21/2020 15:00 115.68 0.00 -- 68.6 -- 0.0
06/21/2020 14:00 115.68 0.00 -- 68.8 -- 0.0
06/21/2020 13:00 115.69 0.00 -- 69.0 -- 0.0
06/21/2020 12:00 115.69 0.00 -- 69.2 -- 0.0
06/21/2020 11:00 115.69 0.00 -- 69.4 -- 0.0
06/21/2020 10:00 115.69 0.00 -- 69.6 -- 0.0
06/21/2020 09:00 115.69 0.00 -- 69.8 -- 0.0
06/21/2020 08:00 115.69 0.00 -- 70.0 -- 0.0
06/21/2020 07:00 115.69 0.00 -- 70.2 -- 0.0
06/21/2020 06:00 115.70 0.00 -- 70.4 -- 0.0
06/21/2020 05:00 115.70 0.00 -- 70.6 -- 0.0
06/21/2020 04:00 115.70 0.00 -- 70.8 -- 0.0
06/21/2020 03:00 115.70 0.00 -- 71.0 -- 0.0
06/21/2020 02:00 115.67 0.00 -- 72.0 -- 0.0
06/21/2020 01:00 115.69 0.00 -- 74.0 -- 0.0
06/21/2020 00:00 115.69 0.00 0.00 75.0 -- 0.0
06/20/2020 23:00 115.69 0.00 -- 75.0 -- 0.0
06/20/2020 22:00 115.65 0.00 -- 78.0 -- 0.0
06/20/2020 21:00 115.63 0.00 -- 82.0 -- 0.0
06/20/2020 20:00 115.67 0.00 -- 82.0 -- 0.0
06/20/2020 19:00 115.62 0.00 -- 87.0 -- 0.0
06/20/2020 18:00 115.64 0.00 -- 92.0 -- 0.0
06/20/2020 17:00 115.67 0.00 -- 91.0 -- 0.0
06/20/2020 16:00 115.69 0.00 -- 91.0 -- 0.0
06/20/2020 15:00 115.70 0.00 -- 89.0 -- 0.0
06/20/2020 14:00 115.66 0.00 -- 88.0 -- 0.0
06/20/2020 13:00 115.71 0.00 -- 87.0 -- 0.0
06/20/2020 12:00 115.66 0.00 -- 83.0 -- 0.0
06/20/2020 11:00 115.65 0.00 -- 81.0 -- 0.0
06/20/2020 10:00 115.65 0.00 -- 79.0 -- 0.0
06/20/2020 09:00 115.68 0.00 -- 75.0 -- 0.0
06/20/2020 08:00 115.70 0.00 -- 72.0 -- 0.0
06/20/2020 07:00 115.71 0.00 -- 68.0 -- 0.0
06/20/2020 06:00 115.71 0.00 -- 68.0 -- 0.0
06/20/2020 05:00 115.71 0.00 -- 70.0 -- 0.0
06/20/2020 04:00 115.70 0.00 -- 71.0 -- 0.0
06/20/2020 03:00 115.70 0.00 -- 72.0 -- 0.0
06/20/2020 02:00 115.67 0.00 -- 74.0 -- 0.0
06/20/2020 01:00 115.66 0.00 -- 75.0 -- 0.0
06/20/2020 00:00 115.65 0.00 0.00 77.0 -- 0.0
06/19/2020 23:00 115.67 0.00 -- 76.0 -- 0.0
06/19/2020 22:00 115.69 0.00 -- 76.0 -- 0.0
06/19/2020 21:00 115.71 0.00 -- 80.0 -- 0.0
06/19/2020 20:00 115.72 0.00 -- 84.0 -- 0.0
06/19/2020 19:00 115.69 0.00 -- 87.0 -- 0.0
06/19/2020 18:00 115.68 0.00 -- 88.0 -- 0.0
06/19/2020 17:00 115.68 0.00 -- 88.0 -- 0.0
06/19/2020 16:00 115.69 0.00 -- 88.0 -- 0.0
06/19/2020 15:00 115.70 0.00 -- 87.0 -- 0.0
06/19/2020 14:00 115.68 0.00 -- 85.0 -- 0.0
06/19/2020 13:00 115.69 0.00 -- 83.0 -- 0.0
06/19/2020 12:00 115.68 0.00 -- 81.0 -- 0.0
06/19/2020 11:00 115.69 0.00 -- 78.0 -- 0.0
06/19/2020 10:00 115.68 0.00 -- 76.0 -- 0.0
06/19/2020 09:00 115.69 0.00 -- 74.0 -- 0.0
06/19/2020 08:00 115.68 0.00 -- 72.0 -- 0.0
06/19/2020 07:00 115.67 0.00 -- 69.0 -- 0.0
06/19/2020 06:00 115.68 0.00 -- 69.0 -- 0.0
06/19/2020 05:00 115.67 0.00 -- 70.0 -- 0.0
06/19/2020 04:00 115.67 0.00 -- 71.0 -- 0.0
06/19/2020 03:00 115.67 0.00 -- 71.0 -- 0.0
06/19/2020 02:00 115.67 0.00 -- 73.0 -- 0.0
06/19/2020 01:00 115.67 0.00 -- 73.0 -- 0.0
06/19/2020 00:00 115.67 0.00 0.00 74.0 -- 0.0
06/18/2020 23:00 115.67 0.00 -- 77.0 -- 0.0
06/18/2020 22:00 115.67 0.00 -- 78.0 -- 0.0
06/18/2020 21:00 115.66 0.00 -- 82.0 -- 0.0
06/18/2020 20:00 115.67 0.00 -- 85.0 -- 0.0
06/18/2020 19:00 115.68 0.00 -- 87.0 -- 0.0
06/18/2020 18:00 115.67 0.00 -- 89.0 -- 0.0
06/18/2020 17:00 -- -- -- 88.0 -- 0.0
06/18/2020 16:00 -- -- -- 87.0 -- 0.0
06/18/2020 15:00 -- -- -- 86.0 -- 0.0
06/18/2020 14:00 -- -- -- 84.0 -- 0.0
06/18/2020 13:00 -- -- -- 82.0 -- 0.0
06/18/2020 12:00 -- -- -- 81.0 -- 0.0
06/18/2020 11:00 -- -- -- 77.0 -- 0.0
06/18/2020 10:00 -- -- -- 73.0 -- 0.0
06/18/2020 09:00 -- -- -- 69.0 -- 0.0
06/18/2020 08:00 -- -- -- 63.0 -- 0.0
06/18/2020 07:00 -- -- -- 56.0 -- 0.0
06/18/2020 06:00 -- -- -- 57.0 -- 0.0
06/18/2020 05:00 -- -- -- 57.0 -- 0.0
06/18/2020 04:00 -- -- -- 57.0 -- 0.0
06/18/2020 03:00 -- -- -- 58.0 -- 0.0
06/18/2020 02:00 -- -- -- 58.0 -- 0.0
06/18/2020 01:00 -- -- -- 58.0 -- 0.0
06/18/2020 00:00 -- -- 0.00 60.0 -- 0.0